Location: *
(6.0000°S, 32.3997°W)
Time: 22:09:39
(UTC+00:00)

Cosmos 2251 Rocket - Pass Details

Date: 01 April 2020
Orbit: 765 x 791 km, 74.0° (Epoch: 02 June)

Event Time Altitude Azimuth Distance (km) Brightness Sun altitude
Rises 20:53:19 0° 190° (S) 3,253 6.8 -10.5°
Reaches altitude 10° 20:55:42 10° 188° (S) 2,327 6.1 -11.0°
Maximum altitude 21:00:59 76° 102° (ESE) 804 3.5 -12.4°
Drops below altitude 10° 21:06:16 10° 17° (NNE) 2,330 5.9 -13.7°
Sets 21:08:40 0° 15° (NNE) 3,258 6.6 -14.3°
